Location: Martin
(32.0982°N, 93.2193°W)
Time: 17:54:22
(UTC+00:00)

ARIANE 6 FM1 Upper Stage - Pass Details

Date: 20 September 2024
Orbit: 563 x 595 km, 62.0° (Epoch: 12 October)

Event Time Altitude Azimuth Distance (km) Brightness Sun altitude
Rises 02:09:40 0° 228° (SW) 2,758 6.6 -25.2°
Reaches altitude 10° 02:12:00 10° 236° (WSW) 1,869 5.8 -25.7°
Maximum altitude 02:15:56 38° 306° (NW) 881 4.1 -26.4°
Enters shadow 02:18:16 21° 2° (N) 1,316 4.7 -26.9°
